Content
SEND FEEDBACK

Daily
Averages
Monthly
Summary
Saudi Arabia

MEDINA, SAUDI ARABIA


Home > Middle East > Saudi Arabia
Elevation: 2070 feet     Latitude: 24 33N     Longitude: 039 42E

WEATHER
 
SELECT A DAY
Number of Records: 180,490;   Date Range: 7/1/96 - 7/7/14
 
SHARE

PRINT THIS DATA

[ ← Previous Day ]
WEATHER ALMANAC - FEBRUARY 13, 2013
[ Next Day → ]
[ °C ]   °F
Weather ElementAverageHighLow
Temperature71.1 °F79 °F (6:00 pm)62.6 °F (7:00 am)
Dewpoint41.2 °F43 °F (12:00 pm)30.2 °F (12:00 am)
Humidity32 %45 % (5:00 am)16 % (6:00 pm)
Barometer29.97 in30.06 in (9:00 am)29.86 in (6:00 pm)
Wind Speed12.7 mph16.1 mph (10:00 am)
Weather ElementAverage
Visibility4.4 mi
Wind DirectionE (85.8 °)

Weather ElementTotal
Precipitation---
Cooling Degree Days5.8 (Base 65)
Growing Degree Days20.8 (Base 50)
Averaged from 31 records on February 13, 2013
WEATHER CONDITIONS BREAKOUT
WIND DIRECTION BREAKOUT
WEATHER BY HOUR - FEBRUARY 13, 2013
[ °C ]   °F
Local TimeTemperatureDewpointHumidityBarometerVisibilityWind DirectionWind SpeedGust SpeedPrecipitationEventsConditions
12:00 AM71.6 °F30.2 °F22 %29.95 inCalmClear
1:00 AM69.8 °F39.2 °F33 %29.95 inEast (100°)11.5 mphClear
2:00 AM68.0 °F42.8 °F40 %29.98 in5.0 miEast (100°)13.8 mphClear
3:00 AM66.0 °F41.0 °F28 %29.88 in5.0 miEast (90°)11.5 mphWidespread Dust
3:00 AM66.2 °F41.0 °F40 %29.98 in5.0 miEast (90°)11.5 mphClear
4:00 AM66.2 °F42.8 °F43 %29.98 in5.0 miEast (80°)15.0 mphClear
5:00 AM64.4 °F42.8 °F45 %29.98 in5.0 miEast (80°)12.7 mphClear
6:00 AM64.4 °F41.0 °F42 %30.01 in5.0 miEast (80°)13.8 mphClear
6:00 AM64.0 °F41.0 °F31 %29.92 in5.0 miEast (80°)13.8 mphWidespread Dust
7:00 AM62.6 °F39.2 °F42 %30.04 in3.7 miEast (80°)13.8 mphClear
8:00 AM62.6 °F39.2 °F42 %30.04 in2.5 miEast (90°)13.8 mphWidespread Dust
9:00 AM64.0 °F41.0 °F31 %29.98 in6.0 miEast (80°)13.8 mphClear
9:00 AM64.4 °F41.0 °F42 %30.06 inEast (80°)13.8 mphClear
10:00 AM66.2 °F41.0 °F40 %30.06 in5.6 miEast (80°)16.1 mph
11:00 AM68.0 °F41.0 °F37 %30.06 in5.0 miEast (90°)16.1 mph
12:00 PM71.6 °F42.8 °F35 %30.04 in4.3 miESE (120°)16.1 mph
12:00 PM71.0 °F43.0 °F25 %29.97 in4.0 miESE (120°)16.1 mphWidespread Dust
1:00 PM73.4 °F42.8 °F33 %30.01 in4.3 miESE (120°)16.1 mph
2:00 PM77.0 °F41.0 °F28 %29.98 in4.3 miESE (110°)16.1 mph
3:00 PM78.0 °F43.0 °F18 %29.88 in4.0 miSE (130°)11.5 mphWidespread Dust
3:00 PM78.8 °F42.8 °F28 %29.95 in3.7 miSE (130°)11.5 mph
4:00 PM78.8 °F42.8 °F28 %29.95 in3.7 miESE (110°)12.7 mph
5:00 PM78.8 °F42.8 °F28 %29.95 in3.7 miENE (70°)10.4 mph
6:00 PM78.8 °F41.0 °F26 %29.95 in3.7 miEast (90°)8.1 mph
6:00 PM79.0 °F41.0 °F16 %29.86 in4.0 miEast (90°)8.1 mphWidespread Dust
7:00 PM78.8 °F42.8 °F28 %29.92 in3.7 miENE (70°)10.4 mph
8:00 PM77.0 °F42.8 °F29 %29.95 in4.3 miENE (60°)11.5 mph
9:00 PM75.0 °F43.0 °F21 %29.88 in4.0 miENE (60°)13.8 mphWidespread Dust
9:00 PM75.2 °F42.8 °F31 %29.95 in4.3 miENE (60°)13.8 mph
10:00 PM73.4 °F41.0 °F31 %29.98 in5.0 miNE (50°)13.8 mphClear
11:00 PM71.6 °F37.4 °F29 %30.01 inENE (70°)13.8 mphClear
Hourly data recorded from OEMA, located miles away from Medina, Saudi Arabia







STORIES FROM OUR PARTNERS